Powrót do katalogu

DANDE

AktywnyNaukaPO
NORAD 39267·PAYLOAD·🇺🇸 United States

Wystrzelony Sep 29, 2013 z Vandenberg Space Force Base

Loading…

Następne Przeloty (najbliższe 24 godziny)

TLE

ŚwieżeSource: Space-Track

Epoka: Sep 14, 2026, 14:43 UTC

1 39267U 13055C   26257.61382419  .00009826  00000-0  18032-3 0  9999
2 39267  80.9851  71.5182 0453471 358.9889   1.0351 14.81948475673443

Śledź DANDE w czasie rzeczywistym z AllMySat

Download on the App Store